Overview Statistics Trail Chart Weather Telemetry Raw packets
 

This is the latest recevied weather packets stored in our database for station/object EA1GEC-10. If no packets are shown the sender has not sent any weather packets the latest 10 day(s).

<< 16 17 18 19 20 21 22 >>
Time Temp. Humidity Pressure Rain* Wind** Luminosity Snow
1777495644 13.89° C 70% 1017.6 hPa - - - -
1777495580 13.89° C 70% 1017.7 hPa - - - -
1777495579 13.89° C 70% 1017.6 hPa - - - -
1777495474 13.89° C 70% 1017.7 hPa - - - -
1777494583 13.89° C 70% 1017.6 hPa - - - -
1777493673 13.89° C 70% 1017.3 hPa - - - -
1777492764 13.89° C 70% 1017.1 hPa - - - -
1777491863 13.89° C 70% 1016.9 hPa - - - -
1777490953 13.89° C 70% 1016.7 hPa - - - -
1777490094 13.89° C 70% 1016.6 hPa - - - -
1777490057 13.89° C 70% 1016.6 hPa - - - -
1777489153 13.89° C 69% 1016.4 hPa - - - -
1777488253 13.89° C 69% 1016.2 hPa - - - -
1777487353 14.44° C 69% 1016 hPa - - - -
1777486453 14.44° C 68% 1015.9 hPa - - - -
1777485553 14.44° C 68% 1016.1 hPa - - - -
1777484653 15° C 68% 1015.8 hPa - - - -
1777481952 15.56° C 65% 1015.6 hPa - - - -
1777481052 15.56° C 65% 1015.5 hPa - - - -
1777480153 15.56° C 65% 1015.5 hPa - - - -
1777479252 15° C 65% 1015.4 hPa - - - -
1777478352 16.11° C 63% 1015.2 hPa - - - -
1777477452 17.22° C 62% 1015.1 hPa - - - -
1777476552 16.67° C 64% 1015.1 hPa - - - -
1777475652 16.11° C 64% 1015.1 hPa - - - -

* Rain since midnight (hover to see other rain measurements)
** Current wind speed in m/s (hover to see current wind gust speed)